CFG4DE LGRP-EDDF

Flight info

Callsign CFG4DE
Flight time 3h 1m
Altitude 36000
Route VANES UM601 ADESO UN133 RIGRO DCT ESOPO DCT FSK DCT DISOR DCT LONTA UL608 DOLEV DCT LURID DCT BEDOX DCT NEMAL DCT SIMBA DCT AKINI T161 DEBHI DEBHI1B
Aircraft A320/M-SDE3FGHIRWY/LB1

Departure

Time 2026-05-07 07:58
Airport Rhodes International Airport "Diagoras" (LGRP)

Arrival

Time 2026-05-07 11:00
Airport Frankfurt Main Airport (EDDF)
Time Latitude Longitude Altitude Speed Heading
2026-05-07 07:07 36.40337 28.09098 26 ft 0 kts 160°
2026-05-07 07:49 36.40341 28.09096 23 ft 4 kts 160°
2026-05-07 07:49 36.40367 28.09084 24 ft 4 kts 154°
2026-05-07 07:50 36.40390 28.09067 25 ft 4 kts 140°
2026-05-07 07:50 36.40406 28.09044 25 ft 4 kts 100°
2026-05-07 07:50 36.40406 28.09028 23 ft 1 kts 75°
2026-05-07 07:50 36.40406 28.09026 23 ft 0 kts 75°
2026-05-07 07:53 36.40407 28.09032 23 ft 3 kts 74°
2026-05-07 07:53 36.40421 28.09086 23 ft 10 kts 72°
2026-05-07 07:53 36.40454 28.09200 26 ft 14 kts 70°
2026-05-07 07:53 36.40487 28.09305 24 ft 12 kts 66°
2026-05-07 07:54 36.40536 28.09375 24 ft 10 kts 36°
2026-05-07 07:54 36.40583 28.09428 24 ft 11 kts 56°
2026-05-07 07:54 36.40625 28.09545 24 ft 17 kts 69°
2026-05-07 07:54 36.40665 28.09685 24 ft 17 kts 70°
2026-05-07 07:55 36.40706 28.09820 24 ft 18 kts 69°
2026-05-07 07:55 36.40749 28.09967 23 ft 18 kts 70°
2026-05-07 07:55 36.40792 28.10115 25 ft 18 kts 70°
2026-05-07 07:55 36.40836 28.10265 24 ft 18 kts 70°
2026-05-07 07:56 36.40878 28.10402 25 ft 13 kts 66°
2026-05-07 07:56 36.40944 28.10423 23 ft 11 kts 338°
2026-05-07 07:56 36.40955 28.10417 23 ft 0 kts 333°
2026-05-07 07:56 36.40965 28.10409 23 ft 6 kts 329°
2026-05-07 07:57 36.41010 28.10342 22 ft 12 kts 303°
2026-05-07 07:57 36.41004 28.10217 23 ft 25 kts 245°
2026-05-07 07:57 36.40870 28.09759 25 ft 90 kts 249°
2026-05-07 07:57 36.40590 28.08804 25 ft 145 kts 250°
2026-05-07 07:58 36.40195 28.07470 173 ft 175 kts 249°
2026-05-07 07:58 36.39926 28.06004 791 ft 174 kts 268°
2026-05-07 07:58 36.39912 28.04491 1440 ft 176 kts 268°
2026-05-07 07:58 36.39880 28.02964 1986 ft 179 kts 268°
2026-05-07 07:59 36.39803 28.01373 2388 ft 191 kts 266°
2026-05-07 07:59 36.39703 27.99685 2773 ft 204 kts 266°
2026-05-07 07:59 36.39569 27.97845 3038 ft 223 kts 265°
2026-05-07 07:59 36.39419 27.95865 3373 ft 241 kts 265°
2026-05-07 08:00 36.39259 27.93704 3770 ft 261 kts 265°
2026-05-07 08:00 36.39097 27.91428 4467 ft 268 kts 266°
2026-05-07 08:00 36.38939 27.89109 5243 ft 272 kts 266°
2026-05-07 08:00 36.38783 27.86768 6011 ft 275 kts 266°
2026-05-07 08:01 36.38625 27.84387 6770 ft 279 kts 267°
2026-05-07 08:01 36.38466 27.81979 7532 ft 281 kts 267°
2026-05-07 08:01 36.38309 27.79558 8294 ft 283 kts 268°
2026-05-07 08:01 36.38156 27.77116 9059 ft 285 kts 270°
2026-05-07 08:02 36.38285 27.74669 9797 ft 285 kts 283°
2026-05-07 08:02 36.38627 27.72238 10420 ft 292 kts 282°
2026-05-07 08:02 36.38971 27.69652 10582 ft 315 kts 282°
2026-05-07 08:02 36.39323 27.66886 10873 ft 331 kts 281°
2026-05-07 08:03 36.39676 27.64036 11468 ft 336 kts 281°
2026-05-07 08:03 36.40031 27.61156 12144 ft 339 kts 282°
2026-05-07 08:03 36.40390 27.58257 12837 ft 341 kts 282°
2026-05-07 08:03 36.40752 27.55341 13518 ft 343 kts 282°
2026-05-07 08:04 36.41116 27.52405 14163 ft 346 kts 282°
2026-05-07 08:04 36.41483 27.49444 14757 ft 348 kts 282°
2026-05-07 08:04 36.41851 27.46468 15349 ft 349 kts 282°
2026-05-07 08:04 36.42220 27.43479 15938 ft 351 kts 282°
2026-05-07 08:05 36.42592 27.40476 16523 ft 353 kts 282°
2026-05-07 08:05 36.42968 27.37456 17089 ft 355 kts 281°
2026-05-07 08:05 36.43345 27.34413 17670 ft 358 kts 281°
2026-05-07 08:05 36.43725 27.31349 18147 ft 360 kts 281°
2026-05-07 08:06 36.44107 27.28266 18676 ft 362 kts 281°
2026-05-07 08:06 36.44481 27.25209 19164 ft 364 kts 281°
2026-05-07 08:06 36.44860 27.22091 19652 ft 366 kts 281°
2026-05-07 08:06 36.45240 27.18953 20135 ft 369 kts 281°
2026-05-07 08:07 36.45624 27.15790 20586 ft 372 kts 281°
2026-05-07 08:07 36.46011 27.12599 21038 ft 375 kts 281°
2026-05-07 08:07 36.46400 27.09381 21509 ft 378 kts 281°
2026-05-07 08:07 36.46791 27.06141 21975 ft 381 kts 281°
2026-05-07 08:08 36.47186 27.02882 22436 ft 383 kts 281°
2026-05-07 08:08 36.47588 26.99595 22888 ft 386 kts 281°
2026-05-07 08:08 36.47993 26.96293 23333 ft 388 kts 281°
2026-05-07 08:08 36.48400 26.92969 23755 ft 391 kts 281°
2026-05-07 08:09 36.48806 26.89620 24108 ft 393 kts 281°
2026-05-07 08:09 36.49211 26.86255 24440 ft 395 kts 281°
2026-05-07 08:09 36.49618 26.82859 24770 ft 398 kts 281°
2026-05-07 08:09 36.50021 26.79452 25102 ft 400 kts 281°
2026-05-07 08:10 36.50423 26.76021 25428 ft 402 kts 281°
2026-05-07 08:10 36.50828 26.72567 25745 ft 404 kts 281°
2026-05-07 08:10 36.51235 26.69107 26057 ft 406 kts 281°
2026-05-07 08:10 36.51644 26.65623 26371 ft 408 kts 281°
2026-05-07 08:11 36.52056 26.62118 26683 ft 410 kts 281°
2026-05-07 08:11 36.52523 26.58617 26981 ft 410 kts 286°
2026-05-07 08:11 36.53460 26.55279 27264 ft 409 kts 297°
2026-05-07 08:11 36.54937 26.52262 27549 ft 409 kts 309°
2026-05-07 08:12 36.56891 26.49694 27829 ft 410 kts 320°
2026-05-07 08:12 36.59246 26.47678 28114 ft 412 kts 332°
2026-05-07 08:12 36.61840 26.46134 28388 ft 414 kts 334°
2026-05-07 08:12 36.64457 26.44612 28669 ft 416 kts 334°
2026-05-07 08:13 36.67079 26.43082 28942 ft 417 kts 334°
2026-05-07 08:13 36.69714 26.41542 29208 ft 419 kts 334°
2026-05-07 08:13 36.72358 26.39992 29467 ft 420 kts 334°
2026-05-07 08:13 36.75007 26.38437 29738 ft 422 kts 334°
2026-05-07 08:14 36.76769 26.37401 29917 ft 423 kts 334°
2026-05-07 08:14 36.79430 26.35836 30155 ft 424 kts 334°
2026-05-07 08:14 36.82099 26.34264 30368 ft 425 kts 334°
2026-05-07 08:14 36.84774 26.32685 30569 ft 426 kts 334°
2026-05-07 08:15 36.87454 26.31104 30821 ft 425 kts 334°
2026-05-07 08:15 36.90129 26.29527 31119 ft 424 kts 333°
2026-05-07 08:15 36.92791 26.27959 31418 ft 422 kts 333°
2026-05-07 08:15 36.95441 26.26397 31712 ft 420 kts 333°
2026-05-07 08:16 36.98080 26.24837 31979 ft 419 kts 333°
2026-05-07 08:16 37.00712 26.23264 32226 ft 419 kts 332°
2026-05-07 08:16 37.03330 26.21673 32495 ft 418 kts 332°
2026-05-07 08:16 37.05938 26.20076 32778 ft 417 kts 332°
2026-05-07 08:17 37.08540 26.18478 33057 ft 415 kts 332°
2026-05-07 08:17 37.11131 26.16887 33337 ft 414 kts 331°
2026-05-07 08:17 37.13714 26.15300 33623 ft 413 kts 331°
2026-05-07 08:17 37.16285 26.13719 33908 ft 411 kts 331°
2026-05-07 08:18 37.18857 26.12140 34117 ft 411 kts 331°
2026-05-07 08:18 37.23985 26.08998 34158 ft 409 kts 331°
2026-05-07 08:19 37.29100 26.05862 34154 ft 409 kts 331°
2026-05-07 08:19 37.34220 26.02719 34158 ft 410 kts 331°
2026-05-07 08:20 37.39340 25.99571 34155 ft 410 kts 331°
2026-05-07 08:20 37.44456 25.96415 34155 ft 409 kts 331°
2026-05-07 08:21 37.49575 25.93257 34158 ft 411 kts 331°
2026-05-07 08:21 37.54718 25.90071 34155 ft 412 kts 331°
2026-05-07 08:22 37.59856 25.86847 34149 ft 412 kts 329°
2026-05-07 08:22 37.64805 25.83214 34149 ft 411 kts 326°
2026-05-07 08:23 37.69645 25.79373 34149 ft 411 kts 325°
2026-05-07 08:23 37.74505 25.75560 34147 ft 411 kts 326°
2026-05-07 08:24 37.79361 25.71830 34150 ft 411 kts 326°
2026-05-07 08:24 37.84258 25.68088 34147 ft 411 kts 326°
2026-05-07 08:25 37.89152 25.64341 34147 ft 411 kts 326°
2026-05-07 08:25 37.94051 25.60572 34144 ft 413 kts 326°
2026-05-07 08:26 38.01408 25.54885 34147 ft 413 kts 325°
2026-05-07 08:26 38.06328 25.51086 34141 ft 414 kts 326°
2026-05-07 08:27 38.11246 25.47280 34141 ft 414 kts 326°
2026-05-07 08:27 38.16162 25.43464 34141 ft 414 kts 326°
2026-05-07 08:28 38.21079 25.39639 34144 ft 414 kts 326°
2026-05-07 08:28 38.25994 25.35817 34141 ft 414 kts 326°
2026-05-07 08:29 38.30907 25.31984 34138 ft 415 kts 325°
2026-05-07 08:29 38.35856 25.28120 34142 ft 418 kts 325°
2026-05-07 08:30 38.40781 25.24276 34141 ft 418 kts 325°
2026-05-07 08:30 38.45738 25.20393 34138 ft 418 kts 325°
2026-05-07 08:31 38.50695 25.16500 34138 ft 418 kts 325°
2026-05-07 08:31 38.55655 25.12604 34136 ft 419 kts 326°
2026-05-07 08:32 38.60622 25.08698 34130 ft 419 kts 325°
2026-05-07 08:32 38.65589 25.04786 34130 ft 419 kts 325°
2026-05-07 08:33 38.70560 25.00862 34135 ft 420 kts 325°
2026-05-07 08:33 38.75545 24.96908 34133 ft 423 kts 325°
2026-05-07 08:34 38.80547 24.92937 34138 ft 423 kts 325°
2026-05-07 08:34 38.85531 24.88985 34133 ft 424 kts 325°
2026-05-07 08:35 38.90547 24.85000 34131 ft 424 kts 325°
2026-05-07 08:35 38.95563 24.81011 34131 ft 424 kts 325°
2026-05-07 08:36 39.00583 24.77016 34133 ft 424 kts 325°
2026-05-07 08:36 39.05596 24.73009 34136 ft 424 kts 325°
2026-05-07 08:37 39.10608 24.69000 34130 ft 424 kts 324°
2026-05-07 08:37 39.15617 24.64978 34130 ft 424 kts 324°
2026-05-07 08:38 39.20624 24.60958 34125 ft 424 kts 324°
2026-05-07 08:38 39.25630 24.56929 34125 ft 424 kts 324°
2026-05-07 08:39 39.30633 24.52892 34125 ft 424 kts 324°
2026-05-07 08:39 39.35600 24.48865 34125 ft 424 kts 324°
2026-05-07 08:40 39.40564 24.44751 34125 ft 424 kts 323°
2026-05-07 08:40 39.45507 24.40600 34125 ft 423 kts 323°
2026-05-07 08:41 39.50455 24.36447 34122 ft 425 kts 323°
2026-05-07 08:41 39.55424 24.32286 34124 ft 426 kts 323°
2026-05-07 08:42 39.60394 24.28121 34124 ft 426 kts 323°
2026-05-07 08:42 39.65369 24.23941 34125 ft 426 kts 323°
2026-05-07 08:43 39.70339 24.19758 34128 ft 426 kts 323°
2026-05-07 08:43 39.75278 24.15589 34128 ft 425 kts 323°
2026-05-07 08:44 39.80244 24.11386 34125 ft 425 kts 323°
2026-05-07 08:44 39.85210 24.07181 34124 ft 426 kts 323°
2026-05-07 08:45 39.90189 24.02957 34130 ft 427 kts 323°
2026-05-07 08:45 39.95149 23.98742 34131 ft 428 kts 323°
2026-05-07 08:46 40.00144 23.94490 34128 ft 428 kts 322°
2026-05-07 08:46 40.05126 23.90238 34128 ft 428 kts 323°
2026-05-07 08:47 40.10088 23.86007 34127 ft 429 kts 323°
2026-05-07 08:47 40.15086 23.81734 34126 ft 429 kts 323°
2026-05-07 08:48 40.20090 23.77444 34126 ft 429 kts 322°
2026-05-07 08:48 40.25088 23.73148 34123 ft 430 kts 322°
2026-05-07 08:49 40.30066 23.68861 34130 ft 431 kts 322°
2026-05-07 08:49 40.35082 23.64539 34124 ft 430 kts 322°
2026-05-07 08:50 40.40065 23.60247 34124 ft 430 kts 322°
2026-05-07 08:50 40.45075 23.55924 34126 ft 431 kts 322°
2026-05-07 08:51 40.50086 23.51573 34121 ft 430 kts 322°
2026-05-07 08:51 40.55050 23.47259 34124 ft 430 kts 322°
2026-05-07 08:52 40.60062 23.42902 34124 ft 430 kts 322°
2026-05-07 08:52 40.65077 23.38534 34126 ft 433 kts 322°
2026-05-07 08:53 40.70072 23.34178 34121 ft 433 kts 322°
2026-05-07 08:53 40.75105 23.29777 34121 ft 433 kts 322°
2026-05-07 08:54 40.80130 23.25373 34120 ft 433 kts 322°
2026-05-07 08:54 40.85110 23.21003 34122 ft 432 kts 322°
2026-05-07 08:55 40.90119 23.16606 34122 ft 431 kts 322°
2026-05-07 08:55 40.95125 23.12198 34122 ft 431 kts 322°
2026-05-07 08:56 41.00101 23.07798 34127 ft 433 kts 322°
2026-05-07 08:56 41.05118 23.03360 34129 ft 433 kts 322°
2026-05-07 08:57 41.09976 22.98687 34133 ft 427 kts 312°
2026-05-07 08:57 41.13899 22.92836 34425 ft 423 kts 306°
2026-05-07 08:58 41.15799 22.89856 34681 ft 423 kts 306°
2026-05-07 08:58 41.17671 22.86925 34919 ft 422 kts 306°
2026-05-07 08:58 41.19565 22.83960 35147 ft 421 kts 306°
2026-05-07 08:58 41.21452 22.80996 35383 ft 420 kts 306°
2026-05-07 08:59 41.23332 22.78038 35599 ft 419 kts 306°
2026-05-07 08:59 41.25215 22.75080 35764 ft 419 kts 306°
2026-05-07 08:59 41.27144 22.72159 35930 ft 420 kts 308°
2026-05-07 08:59 41.29108 22.69286 36099 ft 420 kts 308°
2026-05-07 09:00 41.33065 22.63606 36140 ft 417 kts 308°
2026-05-07 09:00 41.36990 22.57923 36141 ft 417 kts 308°
2026-05-07 09:01 41.40891 22.52194 36150 ft 417 kts 308°
2026-05-07 09:01 41.44784 22.46451 36144 ft 417 kts 308°
2026-05-07 09:02 41.48685 22.40698 36146 ft 419 kts 307°
2026-05-07 09:02 41.52566 22.34962 36137 ft 419 kts 307°
2026-05-07 09:03 41.56471 22.29184 36134 ft 419 kts 307°
2026-05-07 09:03 41.60374 22.23395 36135 ft 420 kts 307°
2026-05-07 09:04 41.64277 22.17590 36156 ft 420 kts 307°
2026-05-07 09:04 41.68174 22.11782 36161 ft 420 kts 307°
2026-05-07 09:05 41.72071 22.05965 36159 ft 420 kts 307°
2026-05-07 09:05 41.75965 22.00142 36158 ft 420 kts 307°
2026-05-07 09:06 41.79865 21.94311 36156 ft 420 kts 307°
2026-05-07 09:06 41.83102 21.89461 36157 ft 420 kts 307°
2026-05-07 09:07 41.86989 21.83610 36161 ft 420 kts 307°
2026-05-07 09:07 41.90873 21.77756 36168 ft 420 kts 307°
2026-05-07 09:08 41.94767 21.71884 36157 ft 421 kts 307°
2026-05-07 09:08 41.98672 21.65995 36154 ft 422 kts 307°
2026-05-07 09:09 42.02545 21.60131 36150 ft 422 kts 306°
2026-05-07 09:09 42.06440 21.54205 36145 ft 423 kts 306°
2026-05-07 09:10 42.10345 21.48263 36146 ft 424 kts 306°
2026-05-07 09:10 42.14246 21.42317 36147 ft 424 kts 306°
2026-05-07 09:11 42.18126 21.36343 36149 ft 423 kts 306°
2026-05-07 09:11 42.21937 21.30294 36169 ft 423 kts 305°
2026-05-07 09:12 42.25700 21.24271 36172 ft 423 kts 305°
2026-05-07 09:12 42.29499 21.18214 36167 ft 423 kts 305°
2026-05-07 09:13 42.33302 21.12161 36172 ft 422 kts 306°
2026-05-07 09:13 42.37105 21.06102 36152 ft 423 kts 306°
2026-05-07 09:14 42.40907 21.00018 36148 ft 423 kts 305°
2026-05-07 09:14 42.44707 20.93919 36147 ft 424 kts 305°
2026-05-07 09:15 42.48511 20.87817 36152 ft 424 kts 305°
2026-05-07 09:15 42.52315 20.81695 36151 ft 425 kts 305°
2026-05-07 09:16 42.56115 20.75547 36147 ft 426 kts 305°
2026-05-07 09:16 42.59933 20.69358 36139 ft 428 kts 305°
2026-05-07 09:17 42.63735 20.63199 36131 ft 429 kts 305°
2026-05-07 09:17 42.67570 20.56980 36129 ft 430 kts 305°
2026-05-07 09:18 42.71407 20.50744 36135 ft 431 kts 305°
2026-05-07 09:18 42.75240 20.44485 36134 ft 431 kts 304°
2026-05-07 09:19 42.79075 20.38215 36131 ft 431 kts 304°
2026-05-07 09:19 42.82918 20.31942 36116 ft 433 kts 307°
2026-05-07 09:20 42.87387 20.26345 36109 ft 438 kts 314°
2026-05-07 09:20 42.91930 20.20889 36113 ft 438 kts 313°
2026-05-07 09:21 42.96500 20.15377 36103 ft 438 kts 313°
2026-05-07 09:21 43.01074 20.09862 36128 ft 439 kts 313°
2026-05-07 09:22 43.05653 20.04320 36121 ft 440 kts 313°
2026-05-07 09:22 43.10234 19.98771 36119 ft 440 kts 313°
2026-05-07 09:23 43.14818 19.93213 36119 ft 440 kts 313°
2026-05-07 09:23 43.19387 19.87644 36120 ft 440 kts 313°
2026-05-07 09:24 43.23958 19.82066 36118 ft 440 kts 313°
2026-05-07 09:24 43.28522 19.76491 36132 ft 439 kts 313°
2026-05-07 09:25 43.33050 19.70948 36121 ft 439 kts 313°
2026-05-07 09:25 43.37601 19.65372 36114 ft 438 kts 313°
2026-05-07 09:26 43.42145 19.59781 36105 ft 438 kts 313°
2026-05-07 09:26 43.46686 19.54179 36123 ft 439 kts 313°
2026-05-07 09:27 43.51229 19.48568 36097 ft 439 kts 313°
2026-05-07 09:28 43.58047 19.40130 36091 ft 439 kts 313°
2026-05-07 09:28 43.62585 19.34482 36086 ft 440 kts 313°
2026-05-07 09:29 43.67128 19.28822 36095 ft 440 kts 313°
2026-05-07 09:29 43.71685 19.23148 36100 ft 441 kts 313°
2026-05-07 09:30 43.76241 19.17465 36090 ft 441 kts 313°
2026-05-07 09:30 43.80786 19.11769 36098 ft 441 kts 313°
2026-05-07 09:31 43.85297 19.06107 36115 ft 440 kts 313°
2026-05-07 09:31 43.89837 19.00399 36103 ft 440 kts 313°
2026-05-07 09:32 43.94362 18.94691 36095 ft 440 kts 313°
2026-05-07 09:32 43.98887 18.88982 36097 ft 439 kts 313°
2026-05-07 09:33 44.03404 18.83270 36098 ft 439 kts 312°
2026-05-07 09:33 44.07911 18.77546 36109 ft 439 kts 313°
2026-05-07 09:34 44.12416 18.71817 36098 ft 439 kts 313°
2026-05-07 09:34 44.16916 18.66088 36090 ft 438 kts 313°
2026-05-07 09:35 44.21408 18.60353 36082 ft 438 kts 313°
2026-05-07 09:35 44.25897 18.54614 36076 ft 438 kts 313°
2026-05-07 09:36 44.30349 18.48896 36074 ft 438 kts 312°
2026-05-07 09:36 44.34828 18.43140 36072 ft 437 kts 313°
2026-05-07 09:37 44.39303 18.37387 36066 ft 437 kts 312°
2026-05-07 09:37 44.43768 18.31620 36066 ft 436 kts 312°
2026-05-07 09:38 44.48229 18.25851 36078 ft 436 kts 312°
2026-05-07 09:38 44.52679 18.20086 36074 ft 436 kts 312°
2026-05-07 09:39 44.57126 18.14300 36060 ft 436 kts 312°
2026-05-07 09:39 44.61570 18.08516 36056 ft 436 kts 312°
2026-05-07 09:40 44.66009 18.02717 36074 ft 436 kts 312°
2026-05-07 09:40 44.70421 17.96945 36055 ft 437 kts 312°
2026-05-07 09:41 44.74869 17.91124 36055 ft 437 kts 311°
2026-05-07 09:41 44.79313 17.85291 36045 ft 437 kts 311°
2026-05-07 09:42 44.83762 17.79438 36043 ft 438 kts 311°
2026-05-07 09:42 44.88214 17.73561 36059 ft 438 kts 311°
2026-05-07 09:43 44.92662 17.67675 36054 ft 439 kts 311°
2026-05-07 09:43 44.97084 17.61807 36048 ft 439 kts 311°
2026-05-07 09:44 45.01538 17.55894 36044 ft 439 kts 311°
2026-05-07 09:44 45.05991 17.49984 36042 ft 439 kts 311°
2026-05-07 09:45 45.10440 17.44052 36069 ft 439 kts 311°
2026-05-07 09:45 45.14877 17.38107 36066 ft 439 kts 310°
2026-05-07 09:46 45.19297 17.32131 36063 ft 439 kts 310°
2026-05-07 09:46 45.23704 17.26138 36062 ft 439 kts 310°
2026-05-07 09:47 45.28085 17.20186 36093 ft 439 kts 310°
2026-05-07 09:47 45.32494 17.14187 36079 ft 439 kts 310°
2026-05-07 09:48 45.36892 17.08176 36071 ft 438 kts 310°
2026-05-07 09:48 45.41286 17.02161 36065 ft 438 kts 310°
2026-05-07 09:49 45.45681 16.96138 36058 ft 439 kts 310°
2026-05-07 09:49 45.50074 16.90101 36081 ft 439 kts 309°
2026-05-07 09:50 45.54454 16.84051 36069 ft 438 kts 309°
2026-05-07 09:50 45.58836 16.77999 36061 ft 438 kts 309°
2026-05-07 09:51 45.63213 16.71948 36057 ft 438 kts 309°
2026-05-07 09:51 45.67582 16.65892 36081 ft 437 kts 309°
2026-05-07 09:52 45.71944 16.59827 36067 ft 437 kts 309°
2026-05-07 09:52 45.76295 16.53766 36069 ft 436 kts 309°
2026-05-07 09:53 45.80638 16.47703 36056 ft 436 kts 309°
2026-05-07 09:53 45.84983 16.41624 36051 ft 436 kts 309°
2026-05-07 09:54 45.89321 16.35535 36075 ft 436 kts 308°
2026-05-07 09:54 45.93652 16.29438 36063 ft 436 kts 308°
2026-05-07 09:55 45.97953 16.23374 36054 ft 436 kts 308°
2026-05-07 09:55 46.02275 16.17269 36048 ft 436 kts 308°
2026-05-07 09:56 46.06591 16.11145 36043 ft 436 kts 308°
2026-05-07 09:56 46.10918 16.05001 36056 ft 436 kts 308°
2026-05-07 09:57 46.15248 15.98863 36042 ft 437 kts 308°
2026-05-07 09:57 46.19570 15.92707 36031 ft 436 kts 308°
2026-05-07 09:58 46.23882 15.86534 36028 ft 437 kts 308°
2026-05-07 09:58 46.28206 15.80358 36022 ft 438 kts 308°
2026-05-07 09:59 46.32660 15.74320 36014 ft 440 kts 310°
2026-05-07 09:59 46.37173 15.68329 36002 ft 440 kts 310°
2026-05-07 10:00 46.41661 15.62295 36000 ft 440 kts 309°
2026-05-07 10:00 46.46124 15.56216 35996 ft 440 kts 309°
2026-05-07 10:01 46.50557 15.50157 36001 ft 440 kts 309°
2026-05-07 10:01 46.55017 15.44057 36037 ft 441 kts 309°
2026-05-07 10:02 46.59486 15.37936 36017 ft 441 kts 309°
2026-05-07 10:02 46.63953 15.31808 36001 ft 442 kts 309°
2026-05-07 10:03 46.68419 15.25660 35989 ft 442 kts 309°
2026-05-07 10:03 46.72891 15.19505 35983 ft 442 kts 309°
2026-05-07 10:04 46.77359 15.13335 36005 ft 442 kts 309°
2026-05-07 10:04 46.81066 15.08195 36009 ft 442 kts 309°
2026-05-07 10:05 46.86242 15.01003 35988 ft 442 kts 309°
2026-05-07 10:05 46.90698 14.94803 35982 ft 442 kts 309°
2026-05-07 10:06 46.94400 14.89639 35981 ft 442 kts 309°
2026-05-07 10:06 46.98854 14.83409 35984 ft 443 kts 309°
2026-05-07 10:07 47.03311 14.77166 35974 ft 444 kts 309°
2026-05-07 10:07 47.07770 14.70902 35985 ft 444 kts 309°
2026-05-07 10:08 47.12232 14.64609 35977 ft 445 kts 309°
2026-05-07 10:08 47.16690 14.58316 35969 ft 444 kts 309°
2026-05-07 10:09 47.21144 14.52006 35981 ft 445 kts 309°
2026-05-07 10:09 47.25607 14.45673 35972 ft 446 kts 309°
2026-05-07 10:10 47.30047 14.39366 35971 ft 446 kts 309°
2026-05-07 10:10 47.34515 14.33007 35984 ft 447 kts 309°
2026-05-07 10:11 47.38974 14.26634 35980 ft 446 kts 309°
2026-05-07 10:11 47.43430 14.20237 36000 ft 447 kts 309°
2026-05-07 10:12 47.47881 14.13826 35999 ft 447 kts 309°
2026-05-07 10:12 47.52334 14.07405 35994 ft 447 kts 309°
2026-05-07 10:13 47.56786 14.00982 36004 ft 447 kts 309°
2026-05-07 10:13 47.61200 13.94591 36043 ft 446 kts 309°
2026-05-07 10:14 47.65641 13.88145 36036 ft 447 kts 309°
2026-05-07 10:14 47.70077 13.81698 36027 ft 447 kts 309°
2026-05-07 10:15 47.74505 13.75236 36028 ft 446 kts 309°
2026-05-07 10:15 47.78935 13.68761 36032 ft 447 kts 309°
2026-05-07 10:16 47.83360 13.62270 36054 ft 446 kts 309°
2026-05-07 10:16 47.87779 13.55769 36053 ft 446 kts 309°
2026-05-07 10:17 47.92186 13.49265 36034 ft 446 kts 309°
2026-05-07 10:17 47.96534 13.42669 36028 ft 445 kts 308°
2026-05-07 10:18 48.00825 13.36013 36026 ft 445 kts 307°
2026-05-07 10:18 48.05120 13.29346 36040 ft 445 kts 308°
2026-05-07 10:19 48.09429 13.22690 36030 ft 446 kts 308°
2026-05-07 10:19 48.13713 13.16070 36016 ft 446 kts 308°
2026-05-07 10:20 48.18023 13.09380 36011 ft 446 kts 308°
2026-05-07 10:20 48.22320 13.02669 36009 ft 446 kts 308°
2026-05-07 10:21 48.26534 12.95850 36012 ft 445 kts 306°
2026-05-07 10:21 48.30612 12.88857 36033 ft 445 kts 306°
2026-05-07 10:22 48.34671 12.81840 36025 ft 445 kts 306°
2026-05-07 10:22 48.38760 12.74849 36023 ft 445 kts 306°
2026-05-07 10:23 48.42869 12.67855 36016 ft 446 kts 306°
2026-05-07 10:23 48.46976 12.60853 36011 ft 446 kts 306°
2026-05-07 10:24 48.51064 12.53831 36009 ft 446 kts 306°
2026-05-07 10:24 48.55148 12.46793 36010 ft 446 kts 306°
2026-05-07 10:25 48.59206 12.39794 36008 ft 446 kts 306°
2026-05-07 10:25 48.63285 12.32738 36014 ft 446 kts 306°
2026-05-07 10:26 48.67364 12.25676 36025 ft 446 kts 306°
2026-05-07 10:26 48.71437 12.18589 36035 ft 446 kts 306°
2026-05-07 10:27 48.74637 12.10740 36027 ft 434 kts 287°
2026-05-07 10:27 48.76100 12.02005 36021 ft 426 kts 275°
2026-05-07 10:28 48.77059 11.93135 36025 ft 427 kts 275°
2026-05-07 10:28 48.78009 11.84310 36041 ft 427 kts 276°
2026-05-07 10:29 48.78959 11.75412 36034 ft 428 kts 276°
2026-05-07 10:29 48.79890 11.66496 36030 ft 428 kts 275°
2026-05-07 10:30 48.81292 11.53119 36030 ft 428 kts 276°
2026-05-07 10:30 48.82213 11.44186 36035 ft 429 kts 275°
2026-05-07 10:31 48.83117 11.35231 36036 ft 429 kts 276°
2026-05-07 10:31 48.84291 11.26354 36024 ft 433 kts 287°
2026-05-07 10:32 48.87253 11.18324 35431 ft 443 kts 307°
2026-05-07 10:32 48.89429 11.15006 34953 ft 443 kts 314°
2026-05-07 10:32 48.91708 11.11872 34482 ft 440 kts 314°
2026-05-07 10:33 48.93959 11.08752 34016 ft 436 kts 314°
2026-05-07 10:33 48.96185 11.05645 33483 ft 432 kts 314°
2026-05-07 10:33 48.98389 11.02558 32952 ft 429 kts 315°
2026-05-07 10:33 49.00572 10.99490 32436 ft 425 kts 315°
2026-05-07 10:34 49.02737 10.96441 31935 ft 423 kts 315°
2026-05-07 10:34 49.04861 10.93446 31431 ft 420 kts 315°
2026-05-07 10:34 49.06997 10.90435 30942 ft 417 kts 316°
2026-05-07 10:34 49.09119 10.87451 30445 ft 413 kts 316°
2026-05-07 10:35 49.11219 10.84493 29934 ft 409 kts 316°
2026-05-07 10:35 49.13294 10.81560 29364 ft 404 kts 316°
2026-05-07 10:35 49.15344 10.78651 28789 ft 400 kts 316°
2026-05-07 10:35 49.17373 10.75769 28236 ft 397 kts 316°
2026-05-07 10:36 49.19388 10.72907 27689 ft 393 kts 316°
2026-05-07 10:36 49.21349 10.70024 27151 ft 390 kts 314°
2026-05-07 10:36 49.23244 10.67084 26598 ft 386 kts 314°
2026-05-07 10:36 49.25094 10.64126 26081 ft 383 kts 314°
2026-05-07 10:37 49.26920 10.61178 25575 ft 380 kts 314°
2026-05-07 10:37 49.28733 10.58261 25090 ft 377 kts 314°
2026-05-07 10:37 49.30542 10.55371 24594 ft 375 kts 314°
2026-05-07 10:37 49.32346 10.52505 24151 ft 371 kts 314°
2026-05-07 10:38 49.34116 10.49704 24001 ft 360 kts 314°
2026-05-07 10:38 49.35815 10.46978 24023 ft 350 kts 311°
2026-05-07 10:38 49.37268 10.44008 24000 ft 347 kts 306°
2026-05-07 10:38 49.38635 10.41016 23674 ft 346 kts 306°
2026-05-07 10:39 49.40013 10.38008 23290 ft 343 kts 306°
2026-05-07 10:39 49.41382 10.35019 22898 ft 341 kts 305°
2026-05-07 10:39 49.42743 10.32041 22513 ft 340 kts 305°
2026-05-07 10:39 49.44096 10.29071 22118 ft 338 kts 305°
2026-05-07 10:40 49.45441 10.26116 21744 ft 336 kts 305°
2026-05-07 10:40 49.46776 10.23176 21378 ft 334 kts 305°
2026-05-07 10:40 49.48102 10.20251 21016 ft 333 kts 305°
2026-05-07 10:40 49.49421 10.17340 20651 ft 331 kts 305°
2026-05-07 10:41 49.50732 10.14441 20293 ft 330 kts 305°
2026-05-07 10:41 49.52040 10.11546 19946 ft 329 kts 305°
2026-05-07 10:41 49.53346 10.08655 19600 ft 329 kts 305°
2026-05-07 10:41 49.54650 10.05768 19255 ft 329 kts 305°
2026-05-07 10:42 49.55956 10.02871 18918 ft 328 kts 305°
2026-05-07 10:42 49.57255 9.99987 18576 ft 326 kts 305°
2026-05-07 10:42 49.58545 9.97125 18229 ft 325 kts 305°
2026-05-07 10:42 49.59829 9.94267 17854 ft 324 kts 305°
2026-05-07 10:43 49.61106 9.91417 17458 ft 322 kts 305°
2026-05-07 10:43 49.62375 9.88586 17081 ft 320 kts 305°
2026-05-07 10:43 49.63637 9.85772 16719 ft 318 kts 305°
2026-05-07 10:43 49.64888 9.82977 16340 ft 315 kts 305°
2026-05-07 10:44 49.66128 9.80197 15974 ft 313 kts 305°
2026-05-07 10:44 49.67359 9.77436 15622 ft 311 kts 305°
2026-05-07 10:44 49.68585 9.74693 15269 ft 309 kts 305°
2026-05-07 10:44 49.69806 9.71964 14916 ft 308 kts 305°
2026-05-07 10:45 49.71016 9.69249 14578 ft 306 kts 305°
2026-05-07 10:45 49.72217 9.66546 14232 ft 304 kts 305°
2026-05-07 10:45 49.73395 9.63894 13926 ft 302 kts 305°
2026-05-07 10:45 49.74575 9.61234 13610 ft 298 kts 305°
2026-05-07 10:46 49.75743 9.58603 13258 ft 296 kts 305°
2026-05-07 10:46 49.76905 9.55984 12887 ft 294 kts 305°
2026-05-07 10:46 49.78059 9.53378 12528 ft 292 kts 304°
2026-05-07 10:46 49.79203 9.50787 12146 ft 292 kts 304°
2026-05-07 10:47 49.80342 9.48199 11809 ft 290 kts 303°
2026-05-07 10:47 49.81474 9.45628 11477 ft 288 kts 304°
2026-05-07 10:47 49.82619 9.43035 11126 ft 287 kts 304°
2026-05-07 10:47 49.83727 9.40526 10996 ft 285 kts 304°
2026-05-07 10:48 49.84846 9.37983 11006 ft 287 kts 304°
2026-05-07 10:48 49.86014 9.35479 11008 ft 287 kts 310°
2026-05-07 10:48 49.87486 9.33388 10951 ft 289 kts 322°
2026-05-07 10:48 49.89108 9.31538 10591 ft 287 kts 322°
2026-05-07 10:49 49.90696 9.29740 10437 ft 279 kts 322°
2026-05-07 10:49 49.92251 9.27980 10125 ft 276 kts 322°
2026-05-07 10:49 49.93797 9.26227 9781 ft 274 kts 322°
2026-05-07 10:49 49.95320 9.24499 9260 ft 270 kts 322°
2026-05-07 10:50 49.96830 9.22781 8633 ft 270 kts 322°
2026-05-07 10:50 49.98340 9.21059 8256 ft 267 kts 323°
2026-05-07 10:50 49.99788 9.19407 8032 ft 249 kts 323°
2026-05-07 10:50 50.01140 9.17865 7737 ft 236 kts 323°
2026-05-07 10:51 50.02451 9.16367 7253 ft 232 kts 323°
2026-05-07 10:51 50.03751 9.14879 6845 ft 232 kts 323°
2026-05-07 10:51 50.05043 9.13399 6547 ft 230 kts 324°
2026-05-07 10:51 50.06329 9.11925 6232 ft 229 kts 324°
2026-05-07 10:52 50.07609 9.10455 5944 ft 228 kts 324°
2026-05-07 10:52 50.08881 9.08993 5646 ft 227 kts 324°
2026-05-07 10:52 50.10148 9.07536 5303 ft 226 kts 323°
2026-05-07 10:52 50.11414 9.06083 4963 ft 225 kts 323°
2026-05-07 10:53 50.12559 9.04445 4637 ft 224 kts 308°
2026-05-07 10:53 50.13287 9.02318 4287 ft 224 kts 288°
2026-05-07 10:53 50.13502 8.99955 4028 ft 224 kts 269°
2026-05-07 10:53 50.13191 8.97575 3994 ft 221 kts 252°
2026-05-07 10:54 50.12673 8.95385 3991 ft 211 kts 252°
2026-05-07 10:54 50.12173 8.93243 3994 ft 210 kts 252°
2026-05-07 10:54 50.11673 8.91106 4000 ft 209 kts 252°
2026-05-07 10:54 50.11192 8.89058 4027 ft 193 kts 252°
2026-05-07 10:55 50.10736 8.87117 4011 ft 189 kts 253°
2026-05-07 10:55 50.10285 8.85197 3905 ft 188 kts 253°
2026-05-07 10:55 50.09837 8.83291 3704 ft 187 kts 252°
2026-05-07 10:55 50.09388 8.81388 3474 ft 186 kts 253°
2026-05-07 10:56 50.08942 8.79494 3226 ft 186 kts 253°
2026-05-07 10:56 50.08498 8.77612 2973 ft 184 kts 252°
2026-05-07 10:56 50.08118 8.75734 2752 ft 176 kts 259°
2026-05-07 10:56 50.07883 8.73925 2394 ft 167 kts 261°
2026-05-07 10:57 50.07666 8.72246 2137 ft 152 kts 260°
2026-05-07 10:57 50.07386 8.70707 1861 ft 145 kts 251°
2026-05-07 10:57 50.06995 8.69279 1598 ft 140 kts 252°
2026-05-07 10:57 50.06682 8.67861 1446 ft 138 kts 255°
2026-05-07 10:58 50.06361 8.66439 1292 ft 140 kts 252°
2026-05-07 10:58 50.06013 8.65025 1119 ft 140 kts 251°
2026-05-07 10:58 50.05667 8.63603 957 ft 140 kts 252°
2026-05-07 10:58 50.05335 8.62173 793 ft 141 kts 252°
2026-05-07 10:59 50.05003 8.60750 618 ft 139 kts 251°
2026-05-07 10:59 50.04664 8.59341 470 ft 138 kts 251°
2026-05-07 10:59 50.04336 8.57951 377 ft 130 kts 249°
2026-05-07 10:59 50.04060 8.56799 364 ft 91 kts 250°
2026-05-07 11:00 50.03898 8.56123 359 ft 36 kts 248°
2026-05-07 11:00 50.03883 8.55853 362 ft 25 kts 280°
2026-05-07 11:00 50.03912 8.55656 363 ft 9 kts 295°
2026-05-07 11:00 50.03931 8.55631 366 ft 0 kts 337°
2026-05-07 11:01 50.03966 8.55644 361 ft 12 kts 32°
2026-05-07 11:01 50.04010 8.55789 367 ft 15 kts 70°
2026-05-07 11:02 50.04046 8.55940 363 ft 17 kts 69°
2026-05-07 11:02 50.04097 8.56154 363 ft 23 kts 69°
2026-05-07 11:02 50.04135 8.56314 360 ft 24 kts 69°
2026-05-07 11:02 50.04195 8.56564 361 ft 25 kts 70°
2026-05-07 11:03 50.04258 8.56826 365 ft 27 kts 69°
2026-05-07 11:03 50.04323 8.57102 362 ft 28 kts 70°
2026-05-07 11:03 50.04391 8.57381 366 ft 25 kts 69°
2026-05-07 11:03 50.04451 8.57627 363 ft 23 kts 68°
2026-05-07 11:04 50.04507 8.57869 363 ft 25 kts 71°
2026-05-07 11:04 50.04569 8.58128 363 ft 26 kts 70°
2026-05-07 11:04 50.04634 8.58402 364 ft 27 kts 69°
2026-05-07 11:04 50.04690 8.58635 364 ft 19 kts 69°
2026-05-07 11:05 50.04743 8.58834 362 ft 18 kts 69°
2026-05-07 11:05 50.04768 8.58871 363 ft 3 kts 349°
2026-05-07 11:05 50.04786 8.58862 361 ft 2 kts 341°
2026-05-07 11:05 50.04806 8.58851 364 ft 3 kts 340°
2026-05-07 11:06 50.04825 8.58840 364 ft 2 kts 340°
2026-05-07 11:06 50.04834 8.58835 364 ft 0 kts 340°